Wind_Speed
11 10 11 11 10 11 11 11 10 10 9 9 9 7 6 5 5 4 4 4 3 3 3 2 1 0 2 2 3 3 4 4 3 3 5 5 5 4 5 5 5 5 4
10 10 11 11 11 11 11 11 10 10 10 10 9 8 7 6 5 5 5 4 4 3 3 2 1 0 1 2 3 3 4 5 4 3 4 5 5 5 4 5 5 5 4
10 10 11 11 11 11 11 10 10 10 10 10 9 9 8 7 6 5 5 5 4 3 3 2 1 0 1 2 3 4 4 5 5 4 4 5 6 5 5 5 6 5 4
10 10 11 11 11 10 10 10 10 10 10 9 9 9 8 7 6 5 5 5 4 4 3 2 2 2 2 3 4 5 5 6 5 5 5 5 5 5 6 5 6 5 4
9 10 11 11 11 10 10 11 11 10 10 9 9 9 8 7 5 5 6 5 5 4 3 3 2 3 3 4 5 6 6 6 6 6 6 6 5 5 6 6 6 5 5
10 10 11 11 11 11 10 11 11 10 9 9 9 9 8 7 7 6 6 5 4 5 4 3 3 3 4 5 6 7 7 7 7 7 6 5 5 5 6 6 6 6 6
10 10 10 10 10 10 10 10 10 10 9 9 9 9 8 7 7 6 6 6 5 5 4 4 4 4 4 6 6 7 8 7 7 7 6 6 5 6 6 7 7 7 7
10 10 10 10 10 10 10 10 10 9 9 9 9 8 8 7 7 6 7 6 5 5 5 4 4 4 5 5 5 7 8 7 7 7 7 7 6 6 5 6 6 7 7
10 10 10 10 10 10 10 10 9 9 9 9 9 8 8 7 6 7 6 6 6 6 5 6 5 5 5 4 5 6 7 7 7 7 7 7 7 6 5 6 6 6 7
9 10 10 9 9 9 9 9 9 9 9 9 9 8 8 7 7 6 6 6 6 6 6 6 5 6 6 5 5 5 6 6 6 6 7 7 7 6 5 6 6 6 7
10 10 9 9 8 8 9 9 9 9 9 9 9 9 8 8 7 6 6 7 7 7 6 6 6 5 5 5 5 6 6 6 6 7 7 7 7 7 6 6 7 6 7
9 10 9 9 9 9 9 9 8 9 9 9 9 8 8 8 7 7 7 7 7 7 6 6 6 6 5 5 5 6 7 7 6 7 7 7 7 7 7 7 8 7 8
9 9 9 10 10 10 9 9 8 9 9 9 8 8 8 8 8 8 8 7 7 7 6 5 5 5 5 5 5 6 7 7 7 7 7 7 7 7 8 8 8 8 9
8 9 9 10 11 10 9 8 8 9 9 9 8 8 8 8 8 8 8 8 7 7 5 4 3 4 4 5 5 6 6 7 7 7 7 8 8 8 8 8 9 10 10
8 9 10 10 10 10 9 9 8 9 9 9 9 9 8 8 8 8 8 7 7 6 5 3 3 4 4 4 5 6 7 7 7 7 7 8 9 9 9 9 9 10 10
9 10 10 10 10 10 9 9 8 8 9 9 9 9 9 8 8 8 8 7 6 7 6 4 3 3 4 5 6 7 7 7 8 8 9 9 9 9 9 9 10 9 10
9 10 10 10 10 10 9 9 7 8 9 9 8 8 8 8 8 8 8 7 7 7 7 5 4 3 5 6 7 8 8 8 9 9 9 9 10 10 10 10 10 10 11
8 9 10 10 10 10 9 8 7 8 8 9 9 9 8 8 8 8 8 8 8 8 7 6 5 5 5 6 7 8 8 9 9 10 10 10 10 10 10 11 11 11 11
8 8 10 10 10 9 9 7 7 7 8 8 9 9 8 8 8 8 8 9 8 8 7 6 5 6 6 6 7 8 9 10 10 10 10 11 11 11 11 11 11 11 11
8 8 9 10 10 9 8 8 8 8 8 8 8 8 8 8 9 8 9 9 8 8 7 6 5 6 6 6 7 7 8 9 10 10 11 11 11 11 10 10 11 11 11
8 9 9 9 9 8 8 9 9 9 8 8 8 8 8 8 9 9 9 9 9 8 6 6 6 6 6 6 7 7 8 9 9 10 10 10 10 10 11 11 11 11 12
9 9 9 10 9 9 8 9 9 10 9 9 9 8 8 9 9 9 9 10 10 9 8 7 7 6 7 7 7 8 8 9 9 9 9 10 11 11 11 11 11 11 12
9 9 9 10 9 9 9 9 9 9 10 9 9 8 9 9 10 10 10 10 9 9 8 8 8 7 7 8 8 9 9 9 10 10 10 10 11 12 12 12 12 12 12
10 10 10 10 10 9 9 9 8 9 9 9 8 8 8 9 10 10 10 10 9 9 9 9 9 9 9 9 9 9 10 10 11 11 11 12 12 12 13 13 13 14 14
11 11 11 11 10 9 9 9 9 9 9 9 8 8 9 10 11 11 11 10 10 9 9 9 9 9 9 9 9 10 10 10 11 12 12 12 13 13 14 14 14 15 15
11 11 11 11 11 10 9 9 9 9 9 10 10 10 10 11 12 12 12 11 11 11 11 11 10 10 10 10 10 11 11 11 11 12 13 12 13 13 14 15 15 16 16
Wind_Direction
25 24 23 23 27 31 32 34 36 32 29 28 25 22 20 17 11 4 1 356 354 355 8 25 8 155 170 177 175 171 173 184 183 185 192 193 194 200 208 213 211 207 199
23 23 23 22 24 27 28 29 30 28 25 24 22 20 16 11 5 1 353 349 346 347 353 12 6 345 194 187 181 183 184 190 187 188 197 205 210 213 211 214 212 205 209
21 21 23 21 24 27 26 24 24 24 23 22 20 15 10 4 360 357 349 341 338 333 327 339 348 313 221 202 198 204 203 203 206 204 202 212 215 215 215 220 216 215 221
21 21 22 22 26 29 29 26 23 20 19 19 18 13 8 3 356 353 346 337 332 326 312 308 308 267 242 226 214 212 212 213 213 213 210 211 216 214 217 227 227 224 222
20 19 21 21 25 29 28 25 21 19 18 17 14 11 4 0 354 350 348 340 330 317 305 300 294 269 248 241 231 220 216 212 214 216 214 214 217 217 219 224 223 222 223
18 18 18 19 23 25 26 23 20 17 15 13 8 6 1 356 354 350 347 336 318 309 310 294 279 263 249 247 237 226 223 216 214 218 216 212 218 223 224 222 222 222 222
16 17 17 18 20 22 22 20 17 15 12 9 5 3 360 354 351 348 343 338 324 311 302 293 273 260 252 255 243 229 222 219 220 222 215 215 217 221 225 224 224 222 227
15 18 19 15 17 18 16 14 12 11 8 6 4 3 357 355 351 347 341 336 327 311 296 290 282 270 264 257 231 221 218 220 222 222 221 221 221 224 225 223 223 223 228
12 16 16 13 13 14 13 8 7 8 7 3 0 359 355 352 347 340 338 333 324 316 305 294 282 269 261 253 227 222 222 218 216 219 223 224 224 229 231 225 220 226 232
8 13 14 12 11 11 9 7 6 5 5 2 358 358 355 353 344 334 332 330 325 319 310 294 280 272 258 246 236 228 222 220 222 222 224 227 230 240 245 238 235 241 240
9 12 14 14 9 8 8 6 5 4 3 1 357 357 355 354 346 341 333 329 328 320 313 298 286 278 253 240 230 223 220 222 223 225 227 229 234 240 241 243 246 250 249
9 13 16 15 9 5 3 2 2 3 2 359 356 356 355 352 345 343 338 332 332 325 310 295 278 265 253 244 237 228 223 225 225 230 233 236 241 243 242 244 249 255 253
3 6 9 7 3 1 360 1 3 3 2 0 357 359 360 356 349 344 345 341 337 329 316 292 270 251 247 247 244 233 228 228 228 232 236 239 244 246 246 248 251 254 255
358 2 3 1 360 359 1 3 3 2 1 1 360 359 359 358 354 351 351 348 344 338 333 313 270 247 242 244 243 235 235 232 229 231 238 242 247 249 252 255 254 256 257
354 0 2 356 355 357 357 356 356 358 358 359 359 358 357 357 358 358 357 355 353 347 341 318 273 255 254 249 244 238 239 237 237 234 243 247 248 251 253 255 256 254 258
351 353 353 350 351 352 352 351 353 355 355 355 355 353 353 355 358 358 356 353 353 346 340 330 300 268 256 250 245 245 242 242 240 241 245 247 248 252 255 259 259 261 260
340 345 345 344 345 347 347 347 348 348 353 355 353 353 351 350 351 351 350 348 347 344 336 324 310 293 261 253 251 246 243 242 241 242 243 245 248 255 259 264 268 265 265
330 336 339 339 340 342 344 344 341 342 348 351 352 353 353 351 348 345 345 345 342 338 331 323 310 299 286 268 258 253 250 250 245 246 247 251 253 258 260 263 267 266 265
317 325 330 332 332 336 342 344 340 338 340 343 345 347 349 349 346 344 341 342 344 340 331 321 306 296 290 281 269 259 256 254 253 252 251 251 254 257 260 263 265 263 262
309 314 319 325 327 331 339 341 338 334 332 337 338 337 338 342 342 341 340 339 340 339 333 324 308 296 292 284 275 265 258 259 258 256 253 253 255 257 260 263 264 262 261
308 306 309 314 318 321 328 332 335 333 327 329 331 331 331 332 335 337 335 334 329 326 323 317 307 299 294 288 280 270 263 263 259 256 254 253 255 258 260 262 263 262 259
301 300 300 304 308 311 316 321 321 326 325 323 325 327 329 329 331 331 330 329 324 321 319 318 309 300 292 288 283 277 271 270 267 259 256 258 259 260 261 262 265 265 262
292 291 292 299 303 306 310 312 313 316 319 318 318 322 325 327 328 328 326 326 323 321 320 317 313 301 293 287 283 280 275 270 265 262 259 260 263 264 263 265 265 266 267
289 289 289 293 294 298 303 306 311 314 314 313 314 319 321 325 327 328 326 324 320 317 316 315 312 304 295 289 282 278 275 272 268 263 261 261 263 265 267 268 267 267 268
283 285 287 289 285 286 291 297 302 305 304 305 309 315 321 325 325 324 324 322 317 314 312 311 311 305 300 291 283 279 276 273 270 268 266 265 266 266 266 267 268 269 269
275 276 281 285 280 279 282 290 295 299 299 300 303 309 314 317 318 319 320 319 312 310 310 308 306 304 300 294 284 282 278 274 273 270 269 269 270 268 268 267 268 271 272
Height
5882 5881 5880 5879 5877 5876 5875 5874 5873 5873 5872 5872 5871 5870 5870 5870 5871 5871 5871 5871 5871 5870 5870 5870 5870 5870 5871 5872 5873 5874 5875 5876 5877 5878 5879 5880 5881 5881 5882 5883 5884 5884 5885
5882 5881 5880 5879 5878 5877 5875 5875 5874 5873 5873 5872 5871 5871 5871 5871 5871 5871 5871 5870 5870 5870 5870 5870 5870 5870 5871 5872 5873 5874 5875 5876 5877 5877 5878 5879 5880 5881 5881 5882 5883 5884 5885
5883 5882 5880 5879 5878 5877 5876 5875 5874 5874 5873 5872 5872 5871 5871 5870 5870 5870 5870 5870 5870 5869 5869 5869 5870 5870 5871 5871 5872 5873 5874 5875 5876 5877 5878 5879 5879 5880 5881 5882 5883 5883 5884
5883 5882 5881 5880 5878 5877 5876 5875 5875 5874 5873 5873 5872 5871 5870 5870 5870 5870 5870 5869 5869 5869 5869 5869 5869 5869 5870 5871 5871 5872 5873 5874 5875 5876 5877 5878 5879 5879 5880 5881 5882 5883 5884
5884 5882 5881 5880 5879 5877 5876 5876 5875 5874 5874 5873 5872 5871 5870 5870 5869 5869 5869 5869 5868 5868 5868 5868 5868 5868 5869 5869 5870 5871 5872 5873 5874 5875 5877 5878 5878 5879 5879 5880 5881 5882 5883
5884 5883 5881 5880 5879 5878 5877 5876 5875 5874 5874 5873 5872 5871 5870 5870 5869 5869 5868 5868 5868 5867 5867 5867 5867 5867 5868 5868 5868 5869 5870 5872 5873 5874 5876 5877 5877 5878 5879 5880 5880 5881 5882
5885 5883 5882 5881 5879 5878 5877 5876 5875 5874 5874 5873 5872 5871 5870 5869 5869 5868 5868 5867 5867 5866 5866 5866 5866 5866 5866 5865 5865 5866 5868 5870 5872 5873 5874 5876 5876 5877 5878 5878 5879 5880 5881
5885 5883 5882 5881 5880 5879 5878 5877 5875 5874 5874 5873 5872 5871 5870 5869 5868 5867 5867 5866 5866 5866 5866 5865 5864 5865 5864 5862 5861 5863 5866 5869 5871 5872 5873 5874 5875 5876 5876 5877 5878 5879 5880
5885 5884 5882 5881 5880 5879 5878 5877 5876 5875 5874 5873 5871 5870 5869 5869 5868 5867 5866 5865 5865 5864 5864 5864 5864 5863 5863 5863 5862 5863 5865 5868 5869 5871 5872 5873 5874 5875 5875 5876 5877 5877 5878
5885 5884 5882 5881 5881 5880 5878 5877 5876 5875 5874 5872 5871 5870 5869 5868 5867 5866 5865 5864 5864 5863 5862 5862 5862 5862 5862 5863 5863 5864 5866 5867 5869 5870 5871 5872 5873 5874 5874 5875 5875 5876 5876
5885 5884 5882 5882 5881 5880 5879 5877 5876 5875 5873 5872 5871 5869 5868 5867 5866 5865 5864 5863 5862 5861 5861 5860 5860 5859 5860 5862 5863 5864 5865 5866 5868 5869 5869 5870 5871 5872 5873 5874 5874 5874 5874
5885 5884 5882 5881 5881 5880 5878 5877 5876 5875 5873 5872 5870 5869 5868 5867 5865 5864 5863 5862 5861 5859 5858 5858 5858 5858 5859 5861 5862 5863 5864 5865 5866 5867 5868 5869 5870 5871 5871 5872 5872 5872 5873
5885 5884 5882 5881 5880 5879 5878 5877 5876 5874 5873 5872 5870 5869 5867 5866 5865 5863 5862 5861 5860 5858 5856 5855 5856 5856 5858 5860 5861 5862 5863 5864 5865 5866 5867 5868 5868 5869 5870 5870 5871 5871 5871
5884 5883 5882 5881 5880 5879 5878 5876 5875 5874 5873 5871 5870 5869 5867 5866 5864 5863 5861 5860 5859 5857 5855 5854 5855 5856 5857 5859 5860 5861 5862 5863 5864 5865 5865 5866 5867 5868 5868 5868 5869 5869 5870
5884 5883 5882 5881 5880 5879 5878 5876 5875 5874 5872 5871 5869 5868 5867 5865 5864 5862 5861 5859 5858 5857 5855 5855 5855 5856 5857 5858 5859 5859 5860 5861 5862 5863 5864 5865 5865 5866 5866 5867 5867 5867 5868
5883 5882 5881 5881 5880 5879 5877 5876 5874 5873 5871 5870 5868 5867 5866 5864 5863 5862 5860 5859 5858 5857 5856 5856 5856 5856 5856 5857 5857 5858 5859 5860 5860 5861 5862 5863 5863 5864 5864 5865 5865 5865 5865
5883 5882 5881 5880 5879 5878 5876 5874 5873 5872 5870 5869 5868 5866 5865 5864 5862 5861 5860 5859 5858 5856 5856 5855 5855 5855 5855 5855 5856 5856 5857 5858 5859 5859 5860 5860 5861 5861 5862 5862 5862 5863 5863
5882 5881 5880 5879 5878 5877 5875 5874 5872 5871 5870 5868 5867 5866 5865 5863 5862 5861 5860 5858 5857 5856 5855 5854 5854 5854 5854 5854 5854 5854 5855 5856 5857 5857 5858 5858 5859 5859 5859 5860 5860 5860 5860
5880 5880 5879 5878 5877 5876 5874 5873 5871 5870 5869 5868 5867 5865 5864 5863 5862 5860 5859 5858 5856 5855 5854 5853 5853 5853 5852 5852 5852 5853 5853 5854 5854 5855 5855 5856 5856 5856 5857 5857 5857 5857 5857
5879 5878 5878 5877 5876 5875 5873 5872 5871 5869 5868 5867 5866 5865 5863 5862 5861 5859 5858 5857 5856 5854 5853 5852 5852 5851 5851 5851 5851 5851 5851 5851 5852 5852 5853 5853 5853 5854 5854 5854 5854 5854 5855
5877 5877 5876 5875 5874 5873 5872 5871 5870 5869 5868 5867 5865 5864 5863 5861 5860 5858 5857 5856 5855 5853 5852 5851 5851 5850 5850 5849 5849 5849 5849 5849 5849 5850 5850 5850 5851 5851 5851 5851 5852 5851 5852
5875 5874 5874 5873 5873 5872 5871 5870 5869 5868 5867 5866 5864 5863 5862 5860 5859 5857 5856 5855 5853 5852 5851 5850 5849 5849 5848 5848 5847 5847 5847 5848 5847 5847 5848 5848 5848 5848 5848 5849 5849 5849 5849
5872 5872 5871 5871 5870 5870 5869 5868 5867 5866 5865 5864 5863 5862 5860 5859 5857 5856 5854 5853 5852 5850 5849 5848 5848 5847 5846 5846 5845 5845 5845 5845 5845 5845 5845 5845 5845 5845 5845 5846 5846 5846 5846
5870 5869 5869 5868 5868 5867 5867 5866 5865 5864 5864 5863 5861 5860 5859 5857 5856 5854 5853 5851 5850 5849 5848 5847 5846 5845 5844 5843 5843 5842 5842 5842 5842 5842 5843 5843 5842 5843 5843 5843 5843 5842 5842
5867 5866 5866 5866 5866 5865 5865 5864 5863 5862 5861 5861 5860 5858 5857 5855 5854 5852 5851 5849 5848 5847 5846 5845 5844 5842 5841 5841 5840 5840 5839 5839 5839 5839 5840 5840 5840 5840 5839 5839 5839 5839 5839
5863 5863 5863 5863 5862 5862 5862 5862 5861 5860 5859 5858 5857 5856 5855 5853 5852 5851 5849 5847 5846 5845 5844 5842 5841 5840 5839 5838 5837 5837 5836 5836 5836 5836 5836 5836 5836 5836 5836 5836 5835 5835 5834